Theta_e
345 352 361 360 358 361 362 363 364 364 363 362 361 361 361 360 358 356 354 352 352 349 346 343 341 340 339 337 336 337 337 337 337 337 341 346 349 352 352 352 352 352 354
347 352 360 359 358 360 362 362 363 363 363 362 362 361 360 359 357 356 353 351 350 345 342 339 337 337 336 335 334 334 333 332 332 332 333 336 345 348 350 351 350 354 354
347 351 355 358 357 358 361 362 362 362 362 362 361 361 359 357 356 354 352 349 347 342 339 337 335 334 334 334 334 334 335 334 333 336 334 327 340 349 348 350 351 353 354
348 349 351 359 357 357 360 360 361 361 361 361 361 359 358 356 355 352 349 346 344 340 338 335 334 335 336 336 336 336 336 336 338 339 333 328 330 349 348 346 346 350 351
350 346 352 359 358 357 357 358 358 359 359 360 360 358 357 355 353 351 348 347 342 339 337 336 336 338 338 337 337 337 338 339 341 340 335 333 332 344 345 345 348 349 351
350 346 357 358 358 357 356 356 357 357 358 358 357 357 355 353 352 350 348 346 344 340 339 339 341 340 339 340 341 341 343 345 346 341 342 335 334 343 341 343 345 346 349
349 348 355 357 358 358 358 356 355 355 355 355 355 355 353 352 351 349 347 346 345 344 342 342 343 343 343 342 342 342 343 344 342 339 341 339 336 342 339 340 343 348 350
346 349 354 357 357 357 357 355 354 354 353 353 353 353 352 351 349 348 347 346 346 346 346 345 345 345 345 345 344 345 346 346 343 339 340 341 342 344 340 341 345 350 353
345 352 353 352 355 357 355 355 354 353 353 352 352 351 351 350 348 347 346 346 346 346 347 346 346 347 346 346 346 346 345 343 339 335 336 341 345 345 342 342 344 348 352
342 350 354 353 350 349 350 355 354 353 352 351 351 350 350 349 348 347 345 345 346 347 347 347 347 348 348 347 348 348 345 344 339 336 334 341 346 343 341 342 344 346 349
338 341 354 354 351 346 345 349 354 353 352 351 350 350 347 343 343 341 343 343 347 347 348 348 348 348 348 348 349 348 345 338 336 337 337 346 345 343 341 342 342 344 349
335 339 348 355 350 346 341 346 350 350 349 348 345 345 344 341 338 338 341 343 346 347 348 348 349 348 347 341 342 346 341 337 336 336 341 348 347 344 341 340 341 342 347
336 339 344 354 354 349 346 348 348 345 345 345 344 342 343 340 338 338 336 337 343 345 342 344 344 343 340 340 339 341 340 339 337 334 343 347 346 342 341 341 341 342 346
335 334 344 356 357 355 349 350 351 348 347 345 344 342 341 339 337 337 336 337 337 338 337 338 339 340 340 341 341 342 340 338 336 337 343 346 344 341 339 341 342 342 346
338 339 343 356 357 361 363 357 352 349 349 347 346 344 341 341 338 337 339 339 337 338 337 336 339 340 341 341 342 341 338 339 339 338 339 346 343 343 340 340 340 341 342
342 354 346 355 361 361 359 361 365 357 353 351 347 347 345 342 342 340 338 339 341 338 339 337 338 341 342 343 343 341 341 342 341 341 340 341 344 344 344 343 343 343 342
338 344 347 351 363 361 360 360 358 358 353 354 351 354 347 346 345 341 341 339 338 342 339 340 338 342 342 344 341 342 341 342 339 339 341 339 340 344 344 345 344 343 342
343 344 351 339 356 362 360 358 358 353 354 353 352 355 354 349 346 348 342 341 342 340 343 339 341 339 340 339 339 338 341 341 340 339 340 336 339 337 342 344 344 344 342
340 343 346 348 348 359 361 357 358 357 356 353 354 351 357 352 349 346 346 345 345 341 338 340 339 338 338 339 337 342 341 339 340 340 336 335 338 339 338 342 342 343 343
346 351 351 351 354 360 355 354 349 349 350 351 350 353 357 353 351 349 349 344 348 341 340 340 337 339 338 337 334 337 339 339 339 337 334 338 338 337 337 337 336 336 341
344 349 349 349 351 355 352 345 341 341 342 347 350 354 357 354 351 350 346 349 346 342 340 342 341 339 335 335 337 335 336 338 335 335 338 338 336 337 337 337 336 333 335
344 345 346 349 352 352 347 344 347 345 340 345 351 354 357 355 352 351 348 346 345 344 342 344 340 333 333 338 333 331 324 327 332 335 334 336 334 336 335 336 335 335 334
340 343 345 346 347 349 345 345 347 347 353 354 351 352 354 353 352 349 348 346 346 343 340 342 339 336 330 339 338 330 321 318 324 331 331 332 334 334 333 334 335 334 332
337 341 347 346 345 345 349 346 344 340 339 347 351 351 351 352 351 349 347 347 349 342 343 339 339 335 337 333 334 335 333 329 320 318 328 330 333 333 331 332 331 334 333
330 331 337 344 346 345 346 347 342 345 346 354 353 353 349 352 349 347 346 346 345 343 343 338 339 340 340 335 331 331 330 329 328 322 317 322 329 331 331 329 326 330 334
324 328 335 337 338 345 347 351 349 348 347 346 349 346 344 345 343 344 344 344 344 344 345 342 343 340 337 335 333 332 328 324 323 322 320 321 321 325 330 331 331 333 333
Wind_Speed
16 21 22 19 16 15 14 12 12 11 12 13 12 12 12 12 13 12 11 10 9 9 9 9 8 8 7 7 7 6 6 6 6 6 5 4 4 6 3 2 1 6 9
21 21 22 20 18 15 14 13 12 12 11 12 12 12 12 12 11 11 10 9 8 8 7 6 6 7 6 6 6 5 5 3 3 4 5 4 2 5 4 2 2 4 9
20 19 20 21 19 16 14 13 12 11 11 11 12 12 11 11 12 10 9 7 6 7 6 5 5 5 5 5 4 4 4 2 2 5 8 5 7 8 8 5 2 7 9
18 18 17 20 20 18 15 13 12 12 11 11 12 12 12 11 11 10 9 8 7 6 6 6 6 5 5 4 3 3 2 2 4 7 6 8 8 10 10 6 2 2 7
16 16 17 21 19 19 18 15 14 13 12 11 11 12 11 10 10 10 9 8 8 8 7 7 5 5 4 4 3 1 1 3 7 10 8 2 6 8 6 5 1 2 5
16 15 20 21 19 18 17 16 15 14 13 13 11 11 12 11 11 10 10 10 9 9 8 8 6 6 5 4 3 2 3 5 8 9 8 6 5 9 6 5 5 4 3
17 15 18 20 19 18 18 17 16 15 13 13 13 13 12 11 11 11 11 10 10 10 9 8 6 6 6 5 4 4 4 6 7 8 9 6 9 10 7 4 4 6 5
17 17 16 21 18 17 17 17 16 15 14 13 13 12 13 13 13 12 12 12 11 10 10 9 8 8 7 6 6 5 6 6 8 8 9 2 12 12 9 5 3 6 7
18 16 14 15 16 16 15 15 16 16 15 15 14 13 13 13 14 14 13 13 12 12 10 10 10 10 9 8 8 7 7 7 5 6 10 2 11 11 10 6 2 3 3
19 19 16 14 14 14 12 14 15 15 15 15 15 14 14 14 14 14 13 13 14 13 13 13 13 11 10 10 9 9 9 9 7 8 8 5 10 9 8 7 5 1 3
18 17 18 16 15 14 13 13 13 15 15 15 14 16 13 9 10 12 13 15 15 14 14 14 13 11 11 10 10 12 11 5 8 7 3 13 12 10 8 6 5 1 4
18 18 18 17 17 15 11 13 14 12 10 10 11 12 9 9 8 12 14 17 18 16 14 14 13 12 10 7 7 13 6 9 7 4 6 14 12 10 8 6 5 4 4
15 14 18 17 16 16 11 10 8 8 8 9 13 11 10 8 8 9 7 9 8 14 8 10 9 7 9 7 8 8 10 9 6 4 11 15 13 11 8 7 6 6 6
14 15 16 7 13 14 10 9 10 9 9 8 10 12 9 8 8 7 7 8 9 7 10 8 7 9 10 11 12 10 10 6 2 2 9 13 11 10 10 9 9 9 8
7 14 17 18 11 6 5 4 7 10 10 11 11 13 11 10 9 9 7 7 10 9 10 9 9 10 11 11 11 6 6 5 4 1 4 13 12 11 12 10 10 11 11
5 1 2 17 14 12 8 6 3 5 6 10 10 12 17 12 10 9 9 9 6 11 9 10 9 9 10 10 11 6 6 4 2 2 2 6 12 12 12 11 11 12 12
6 5 3 2 11 11 11 8 5 4 7 5 9 11 18 15 11 13 9 10 10 7 10 10 10 7 5 6 5 4 5 4 3 3 2 5 6 13 13 12 12 13 13
7 5 5 5 10 11 10 7 6 7 6 8 8 7 15 16 14 10 9 9 7 7 6 7 7 5 5 3 3 4 4 3 4 6 4 3 5 6 10 13 13 12 13
9 9 8 5 3 8 7 7 7 8 7 6 6 9 10 16 16 11 8 7 8 7 7 5 4 4 3 4 3 4 4 4 5 3 6 7 7 5 4 11 15 13 13
9 9 8 6 5 6 7 6 7 6 8 7 7 5 8 11 15 12 7 9 7 8 6 4 5 4 4 4 7 5 5 5 4 6 6 4 3 4 5 7 6 6 14
10 10 10 9 7 4 3 4 5 7 6 6 7 7 7 10 12 12 10 7 8 8 7 6 5 6 4 4 4 2 3 8 8 8 3 3 4 5 6 6 5 4 7
12 9 9 9 9 7 6 6 4 6 8 8 6 6 7 9 10 10 10 8 10 6 7 5 6 3 3 5 3 2 4 4 4 3 2 4 4 4 5 5 7 6 6
8 10 11 11 10 9 11 6 5 6 4 3 6 5 5 7 9 10 10 9 8 8 6 5 6 7 6 4 5 3 2 1 2 0 3 3 3 2 4 5 1 3 3
5 6 7 10 11 11 11 9 10 9 7 5 5 6 6 6 8 11 11 11 5 8 6 7 7 6 6 4 2 4 4 1 1 2 2 3 3 3 5 4 5 5 7
9 8 9 10 12 13 12 13 9 9 6 4 4 9 8 5 6 8 7 8 6 6 6 9 7 8 4 3 5 3 3 4 4 3 2 1 1 2 2 4 4 5 14
12 12 9 13 13 13 11 12 10 10 8 6 6 8 5 5 4 5 6 5 6 6 5 8 7 6 5 6 4 1 4 3 3 2 2 2 2 2 2 5 4 4 5
Wind_Direction
132 140 148 147 147 146 150 154 144 148 145 145 142 136 135 131 128 126 123 119 118 118 120 124 122 113 104 88 72 56 51 39 24 22 26 35 77 81 70 82 192 139 125
133 143 148 148 152 150 154 155 149 148 149 151 145 140 140 134 136 132 136 136 133 133 134 122 121 111 109 105 106 103 75 36 10 338 306 262 146 118 90 60 1 125 139
132 141 151 153 153 156 154 152 151 148 153 154 147 145 146 147 142 140 140 142 146 145 138 136 141 129 128 117 106 96 96 78 333 297 281 264 178 151 109 65 55 138 152
135 141 151 157 156 156 152 153 150 153 159 156 155 152 155 156 148 152 152 158 163 162 162 169 163 150 140 124 115 92 64 331 297 293 279 247 197 157 125 99 58 207 167
136 146 151 156 160 159 158 158 156 163 161 165 165 162 163 164 158 157 162 172 172 177 182 181 168 159 160 151 135 142 295 302 301 294 268 49 28 98 85 84 283 237 197
136 150 146 156 162 162 163 160 163 167 167 168 173 171 171 170 164 165 172 178 179 186 189 185 184 173 181 172 185 222 268 293 302 280 272 124 102 120 99 51 5 326 277
140 152 150 157 160 165 164 166 169 172 174 175 175 177 174 171 172 171 182 180 184 195 194 190 184 196 199 203 215 235 264 287 291 295 296 162 116 129 118 69 351 310 276
144 142 151 157 164 168 170 171 172 173 177 181 184 185 178 177 176 180 186 185 189 201 198 196 192 205 213 217 233 241 270 274 299 301 295 42 147 142 124 106 338 301 255
148 131 147 162 166 172 174 173 175 177 181 183 185 187 184 186 185 186 190 192 194 200 199 201 202 209 213 229 241 253 260 270 280 284 291 208 149 142 130 128 56 310 196
153 146 150 162 173 177 183 183 181 183 187 185 188 186 190 192 193 192 193 201 201 199 199 204 210 212 217 226 236 243 248 255 256 262 265 109 135 137 143 135 107 258 174
160 158 151 160 170 181 183 186 186 192 193 193 193 193 190 197 197 202 204 205 205 204 204 207 212 215 222 233 239 240 247 242 243 231 237 140 143 153 159 156 135 241 198
156 157 151 155 166 176 193 176 187 193 200 200 200 195 198 203 203 201 202 215 200 204 207 214 216 217 224 235 219 231 232 237 249 269 126 150 157 165 173 177 174 195 230
175 165 155 154 165 173 200 164 179 189 195 202 204 197 195 202 213 203 203 196 192 203 203 212 214 220 219 221 248 189 217 230 232 230 145 164 168 172 184 195 203 209 219
202 72 50 285 166 179 181 162 177 184 186 199 201 197 195 203 205 217 204 188 191 193 203 210 207 208 219 227 240 207 214 214 276 282 164 166 166 170 183 199 216 222 219
67 147 166 174 160 162 178 199 182 188 186 194 191 195 197 197 207 204 207 208 186 197 190 212 203 208 208 223 239 215 235 243 231 275 143 171 174 178 184 195 218 228 226
335 328 163 156 158 161 180 218 214 201 181 184 196 191 199 202 193 207 209 200 201 192 194 201 219 210 205 211 223 218 229 219 227 220 152 163 182 190 195 195 213 226 228
230 257 272 301 156 162 176 183 218 235 214 214 200 193 190 195 204 197 201 218 204 191 202 191 214 221 200 211 216 217 197 191 215 256 235 185 188 196 194 199 215 224 227
212 215 185 220 158 171 176 183 196 218 234 212 227 201 181 192 197 195 204 199 212 215 198 211 186 200 201 190 210 231 165 177 223 233 250 262 182 192 206 209 207 218 221
205 200 187 174 180 169 170 186 201 215 223 227 215 208 184 186 195 194 204 202 192 204 222 197 192 182 194 192 225 204 176 214 217 230 245 257 183 179 209 201 208 206 209
190 152 158 166 180 177 183 203 213 211 223 223 227 230 182 185 183 193 202 200 189 204 211 198 178 200 185 184 229 205 192 210 207 222 221 227 177 253 242 217 213 202 206
169 163 161 168 188 186 221 217 231 224 225 222 209 206 186 176 176 182 197 201 209 203 208 188 174 177 193 230 246 233 255 224 210 221 210 204 200 214 250 242 174 198 199
163 166 169 179 181 186 208 227 234 223 222 211 185 183 179 165 174 175 187 215 197 214 193 199 168 161 204 219 179 220 259 256 213 204 218 207 212 222 242 251 208 199 176
181 181 181 186 189 195 214 231 220 244 258 257 167 169 159 155 164 177 190 212 190 204 192 176 167 181 205 194 199 207 264 235 78 139 264 228 232 242 262 250 73 357 260
202 201 185 184 194 208 206 218 209 218 217 217 165 155 150 166 180 181 182 208 211 184 205 174 174 195 222 182 193 228 254 25 293 218 233 195 204 252 232 167 157 188 256
243 234 222 198 194 203 199 213 212 220 203 198 146 134 150 157 168 169 167 196 174 186 210 172 182 197 169 203 199 182 188 213 193 223 267 209 137 257 204 156 186 193 185
248 246 223 204 206 192 197 192 204 208 216 180 148 131 141 127 134 147 176 193 186 192 220 172 168 156 192 216 267 212 167 174 160 185 249 277 225 205 187 160 211 182 221